カタログに戻る

FLYING LAPTOP

運用中科学SSO
NORAD 42831·PAYLOAD·🇩🇪 Germany

打ち上げ Jul 14, 2017 から Baikonur Cosmodrome

Loading…

次のパス (今後24時間)

TLE

最新Source: Space-Track

元期: Sep 14, 2026, 15:00 UTC

1 42831U 17042G   26257.62553725  .00001957  00000-0  15508-3 0  9993
2 42831  97.5006  49.9555 0016414 174.9593 185.1800 15.01589511499874

AllMySatでFLYING LAPTOPをリアルタイム追跡

Download on the App Store